Terminal Aerodrome Forecast
Issued by NWS Houston/Galveston, TX

Home | Current Version | Previous Version | Text Only | Print | Product List | Glossary On
Versions: 1 2 3 4 5 6 7 8 9 10 11 12 13 14 15 16 17 18 19 20 21 22 23 24 25 26 27 28 29 30 31 32 33 34 35 36 37 38 39 40 41 42 43 44 45 46 47 48 49 50
000
FTUS44 KHGX 251416 AAC
TAFGLS
TAF AMD
KGLS 251416Z 2514/2612 34010KT 6SM -TSRA BR FEW007 SCT021 OVC035CB
      TEMPO 2514/2516 VRB35KT 2SM +TSRA BR BKN012CB
     FM251700 17011KT P6SM FEW050
     FM260400 20007KT 6SM BR SCT015=

USA.gov is the U.S. government's official web portal to all federal, state and local government web resources and services.